Regional Weather Roundup
Issued by NWS Green Bay, WI

Home | Current Version | Previous Version | Graphics & Text | Print | Product List | Glossary Off
Versions: 1 2 3 4 5 6 7 8 9 10 11 12 13 14 15 16 17 18 19 20 21 22 23 24 25 26 27 28 29 30 31 32 33 34 35 36 37 38 39 40 41 42 43 44 45 46 47 48 49 50

000
ASUS43 KGRB 021411
RWRGRB

NORTH-CENTRAL AND NORTHEAST WISCONSIN REGIONAL WEATHER ROUNDUP
NATIONAL WEATHER SERVICE GREEN BAY WI
800 AM CST FRI DEC 02 2016

WIZ005-009-010>012-018-019-021500-
NORTH CENTRAL WISCONSIN

CITY           SKY/WX    TMP DP  RH WIND       PRES   REMARKS
IRONWOOD       CLOUDY    27  25  92 W9        30.10R
MANITOWISH WTR CLOUDY    26  26  99 W7        30.06R
ARBOR VITAE    CLOUDY    29  25  85 NW8       30.06R
EAGLE RIVER    CLOUDY    28  24  86 NW9       30.04R
LAND O LAKES   CLOUDY    28  27  96 NW3       30.06R
RHINELANDER    CLOUDY    29  24  82 NW10      30.06R
PHILLIPS       CLOUDY    27  23  84 NW6       30.09R
ANTIGO         CLOUDY    28  23  82 NW8       30.06R
TOMAHAWK       CLOUDY    27  22  80 NW6       30.08R
MERRILL        CLOUDY    28  23  81 NW7       30.09R
$$

WIZ013-073-021500-
NORTHEAST WISCONSIN

CITY           SKY/WX    TMP DP  RH WIND       PRES   REMARKS
IRON MOUNTAIN  CLOUDY    30  23  75 NW13      30.02R
MARINETTE      CLOUDY    32  24  72 NW5       30.07R
OCONTO         CLOUDY    32  23  70 W3        30.08R
$$

WIZ017-030-035>037-045-021500-
CENTRAL WISCONSIN

CITY           SKY/WX    TMP DP  RH WIND       PRES   REMARKS
MEDFORD        CLOUDY    28  22  79 N8        30.08R
WAUSAU         CLOUDY    28  22  78 NW9       30.08R
MOSINEE        CLOUDY    28  25  86 NW12      30.10R
MARSHFIELD     CLOUDY    29  21  72 NW10      30.09R
WISC RAPIDS    CLOUDY    31  23  72 NW8       30.12R
STEVENS POINT  CLOUDY    28  20  74 NW7       30.10R
WAUPACA        CLOUDY    33  25  70 NW5       30.10R
SHAWANO        CLOUDY    33  24  68 NW5       30.09R
CLINTONVILLE   CLOUDY    32  23  69 N7        30.09R
WAUTOMA        CLOUDY    32  24  72 NW7         N/A
$$

WIZ038-039-048-051-021500-
FOX VALLEY

CITY           SKY/WX    TMP DP  RH WIND       PRES   REMARKS
NWS GREEN BAY  CLOUDY    34  25  69 NW12      30.08R
APPLETON       CLOUDY    32  23  69 NW7       30.07R
OSHKOSH        CLOUDY    32  23  69 NW7       30.09R
FOND DU LAC    CLOUDY    33  22  63 NW10      30.10R
$$

WIZ022-050-052-021500-
EAST CENTRAL WISCONSIN

CITY           SKY/WX    TMP DP  RH WIND       PRES   REMARKS
EPHRAIM        CLOUDY    32  26  79 NW9       30.04R
WASHINGTON ISL CLOUDY    32  26  76 NW12G17   30.03R
STURGEON BAY   CLOUDY    32  25  75 NW13      30.07R
MANITOWOC      CLOUDY    33  23  66 MISG      30.08R
SHEBOYGAN      CLOUDY    33  25  72 NW7       30.08R
$$

LMZ563-521-522-541>543-021500-
LAKESHORE

STATION/POSITION TIME  TEMP    WIND        PRES    VSBY  WAVE
                       AIR SEA DIR/SP/G                  HT/PER
                 (UTC) (F)     (DEG/KT/KT) (MB)    (MI)  (FT/S)
SHEBOYGAN LKSHOR 1400   33     300/  5/  7 1019.3R
KEWAUNEE LKSHORE 1348   33     300/  5/  8 1017.5R
ALGOMA MARINA    1321          340/  9/ 12   N/A
NORTHPORT PIER   1340   34     300/ 11/ 19 1016.9R
SISTER BAY LKSHO 1323   33     330/ 17/ 20   N/A
CHAMBERS ISLAND  1340   33     270/  5/  9 1017.3R
MENOMINEE LKSHOR 1348   32     270/  7/ 10 1017.3R
$$




USA.gov is the U.S. government's official web portal to all federal, state and local government web resources and services.